Date String (YYYY-MM-DD hh:mm:ss) UTC,Instrument flags,Ambient pressure (hPa),Sample flow (lpm),Bypass flow (lpm),Sample temperature (°C),Ambient temperature (°C),ASC tube jacket temperature (°C),LED temperature (°C),Box temperature (°C),Sample RH (%),Span deviation,Mass concentration (μg/m³),Mass concentration (μg/m³),Mass concentration (μg/m³)
DateTimeUTC,F1_M11,P_M11,Q1_M11,Q2_M11,T1_M11,T2_M11,T3_M11,T4_M11,T5_M11,U1_M11,ZSPAN_M11,X0_M11,X2_M11,X1_M11
2022-04-27 06:00:00,,0822.9,5.02,0.00,29.8,28.8,00.0,38.7,31.5,06.1,0005.1,0029.57,0011.63,0006.09
2022-04-27 06:01:00,,0822.9,4.99,0.00,29.8,28.8,00.0,38.7,31.4,06.1,0005.9,0029.71,0011.69,0006.11
2022-04-27 06:02:00,,0822.9,5.00,0.00,29.8,28.8,00.0,38.7,31.4,06.0,0005.5,0029.13,0011.64,0006.10
2022-04-27 06:03:00,,0822.9,5.02,0.00,29.8,28.8,00.0,38.7,31.5,06.0,0005.1,0029.01,0011.69,0006.12
2022-04-27 06:04:00,,0822.9,4.99,0.00,29.8,28.8,00.0,38.7,31.4,06.1,0005.1,0028.35,0011.62,0006.11
2022-04-27 06:05:00,,0822.9,5.00,0.00,29.8,28.8,00.0,38.7,31.4,06.0,0005.3,0028.25,0011.63,0006.11
2022-04-27 06:06:00,,0822.9,5.02,0.00,29.8,28.8,00.0,38.7,31.5,06.1,0005.2,0028.48,0011.66,0006.07
2022-04-27 06:07:00,,0822.9,4.99,0.00,29.7,28.8,00.0,38.7,31.4,06.1,0005.0,0028.66,0011.65,0006.07
2022-04-27 06:08:00,,0823.0,4.99,0.00,29.7,28.8,00.0,38.7,31.4,06.0,0005.0,0029.26,0011.82,0006.08
2022-04-27 06:09:00,,0823.0,5.02,0.00,29.7,28.8,00.0,38.7,31.4,06.0,0005.1,0029.86,0011.83,0006.11
2022-04-27 06:10:00,,0823.0,5.00,0.00,29.7,28.8,00.0,38.7,31.4,06.0,0004.7,0030.16,0011.79,0006.10
2022-04-27 06:11:00,,0823.0,4.99,0.00,29.7,28.7,00.0,38.7,31.4,06.0,0004.4,0030.10,0011.82,0006.07
2022-04-27 06:12:00,,0823.0,5.00,0.00,29.7,28.7,00.0,38.7,31.4,06.1,0003.8,0029.69,0011.83,0006.06
2022-04-27 06:13:00,,0823.0,5.01,0.00,29.7,28.8,00.0,38.7,31.4,06.0,0003.8,0030.29,0011.90,0006.07
2022-04-27 06:14:00,,0823.0,4.98,0.00,29.7,28.8,00.0,38.7,31.4,06.0,0004.2,0030.95,0012.09,0006.08
2022-04-27 06:15:00,,0823.0,5.01,0.00,29.7,28.7,00.0,38.7,31.4,06.0,0004.5,0031.64,0012.20,0006.08
2022-04-27 06:16:00,,0823.1,4.99,0.00,29.7,28.7,00.0,38.7,31.4,06.0,0004.2,0031.75,0012.25,0006.06
2022-04-27 06:17:00,,0823.0,4.99,0.00,29.7,28.8,00.0,38.7,31.4,06.0,0003.9,0031.52,0012.20,0006.06
2022-04-27 06:18:00,,0823.1,5.01,0.00,29.7,28.7,00.0,38.7,31.3,06.0,0003.7,0031.07,0012.13,0006.05
2022-04-27 06:19:00,,0823.1,4.98,0.00,29.7,28.7,00.0,38.7,31.3,06.0,0003.4,0030.08,0011.96,0006.02
2022-04-27 06:20:00,,0823.1,4.99,0.00,29.7,28.7,00.0,38.7,31.3,06.0,0001.7,0029.92,0011.94,0006.00
2022-04-27 06:21:00,,0823.1,5.01,0.00,29.7,28.7,00.0,38.7,31.3,06.0,0002.5,0028.95,0011.94,0005.98
2022-04-27 06:22:00,,0823.1,5.01,0.00,29.7,28.7,00.0,38.7,31.4,05.9,0003.3,0029.18,0011.97,0005.97
2022-04-27 06:23:00,,0823.0,4.99,0.00,29.7,28.7,00.0,38.7,31.4,05.9,0003.3,0029.27,0011.92,0005.95
2022-04-27 06:24:00,,0823.0,4.99,0.00,29.7,28.7,00.0,38.7,31.3,05.8,0002.9,0029.00,0011.84,0005.91
2022-04-27 06:25:00,,0822.9,5.00,0.00,29.7,28.7,00.0,38.7,31.4,05.8,0001.7,0028.87,0011.74,0005.89
2022-04-27 06:26:00,,0822.9,4.99,0.00,29.7,28.7,00.0,38.7,31.4,05.8,0001.5,0029.47,0011.72,0005.88
2022-04-27 06:27:00,,0822.9,5.01,0.00,29.7,28.7,00.0,38.6,31.4,05.8,0002.1,0029.87,0011.70,0005.89
2022-04-27 06:28:00,,0822.9,5.01,0.00,29.7,28.7,00.0,38.6,31.3,05.8,0002.1,0029.56,0011.67,0005.90
2022-04-27 06:29:00,,0822.9,5.00,0.00,29.7,28.7,00.0,38.6,31.4,05.8,0001.8,0030.27,0011.84,0005.90
2022-04-27 06:30:00,,0823.0,5.01,0.00,29.7,28.7,00.0,38.6,31.4,05.8,0001.4,0030.84,0011.92,0005.91
2022-04-27 06:31:00,,0823.0,5.00,0.00,29.7,28.7,00.0,38.6,31.4,05.9,0002.3,0031.42,0011.87,0005.92
2022-04-27 06:32:00,,0823.0,5.00,0.00,29.7,28.7,00.0,38.6,31.4,06.1,0001.3,0031.84,0011.88,0005.95
2022-04-27 06:33:00,,0823.0,5.01,0.00,29.7,28.7,00.0,38.6,31.3,06.1,0000.2,0032.09,0011.94,0005.97
2022-04-27 06:34:00,,0822.9,4.98,0.00,29.7,28.7,00.0,38.6,31.3,06.1,0000.8,0032.05,0011.91,0005.99
2022-04-27 06:35:00,,0823.0,5.01,0.00,29.6,28.7,00.0,38.6,31.3,06.1,0001.1,0031.65,0011.90,0005.98
2022-04-27 06:36:00,,0823.0,5.01,0.00,29.6,28.7,00.0,38.6,31.3,06.1,0001.3,0031.62,0011.85,0005.98
2022-04-27 06:37:00,,0822.9,4.99,0.00,29.6,28.7,00.0,38.6,31.3,06.0,0000.4,0031.13,0011.82,0005.97
2022-04-27 06:38:00,,0822.9,4.99,0.00,29.6,28.7,00.0,38.6,31.3,06.0,0000.0,0030.67,0011.77,0005.95
2022-04-27 06:39:00,,0822.9,5.00,0.00,29.6,28.7,00.0,38.6,31.3,06.1,-001.0,0030.73,0011.77,0005.93
2022-04-27 06:40:00,,0823.0,4.98,0.00,29.6,28.7,00.0,38.6,31.3,06.0,-000.9,0030.76,0011.70,0005.94
2022-04-27 06:41:00,,0823.0,5.00,0.00,29.6,28.6,00.0,38.6,31.3,06.0,-000.5,0030.56,0011.69,0005.94
2022-04-27 06:42:00,,0823.0,5.01,0.00,29.6,28.6,00.0,38.6,31.2,06.0,-000.6,0029.79,0011.70,0005.93
2022-04-27 06:43:00,,0823.0,5.00,0.00,29.6,28.6,00.0,38.6,31.2,06.0,-000.1,0029.87,0011.77,0005.90
2022-04-27 06:44:00,,0823.1,4.99,0.00,29.6,28.6,00.0,38.6,31.2,06.0,0001.5,0029.93,0011.75,0005.87
2022-04-27 06:45:00,,0823.1,5.01,0.00,29.6,28.6,00.0,38.6,31.3,06.0,0001.1,0029.97,0011.80,0005.86
2022-04-27 06:46:00,,0823.0,5.00,0.00,29.6,28.6,00.0,38.6,31.3,06.0,0000.4,0030.69,0011.91,0005.88
2022-04-27 06:47:00,,0823.0,4.99,0.00,29.6,28.6,00.0,38.6,31.3,05.9,0001.0,0030.97,0011.87,0005.87
2022-04-27 06:48:00,,0823.0,5.01,0.00,29.5,28.6,00.0,38.6,31.3,05.9,0001.6,0030.39,0011.90,0005.85
2022-04-27 06:49:00,,0823.0,5.00,0.00,29.5,28.6,00.0,38.5,31.2,06.0,0001.9,0030.52,0011.95,0005.85
2022-04-27 06:50:00,,0823.0,4.99,0.00,29.5,28.6,00.0,38.5,31.3,06.0,0002.3,0030.54,0011.92,0005.85
2022-04-27 06:51:00,,0823.0,5.01,0.00,29.5,28.6,00.0,38.5,31.3,05.9,0003.0,0030.19,0011.98,0005.86
2022-04-27 06:52:00,,0823.0,4.98,0.00,29.5,28.6,00.0,38.5,31.3,05.9,0004.1,0029.72,0011.83,0005.82
2022-04-27 06:53:00,,0823.0,5.00,0.00,29.5,28.6,00.0,38.5,31.3,05.8,0003.3,0029.85,0011.89,0005.79
2022-04-27 06:54:00,,0823.0,5.01,0.00,29.5,28.6,00.0,38.5,31.2,05.9,0003.6,0029.72,0011.96,0005.78
2022-04-27 06:55:00,,0823.0,5.00,0.00,29.5,28.6,00.0,38.5,31.2,05.9,0004.2,0029.30,0011.94,0005.78
2022-04-27 06:56:00,,0822.9,4.98,0.00,29.5,28.6,00.0,38.5,31.2,05.8,0003.9,0029.15,0011.82,0005.76
2022-04-27 06:57:00,,0822.9,5.02,0.00,29.5,28.6,00.0,38.5,31.2,05.8,0003.7,0028.98,0011.73,0005.72
2022-04-27 06:58:00,,0822.8,4.99,0.00,29.5,28.6,00.0,38.5,31.3,05.8,0002.8,0028.97,0011.72,0005.69
2022-04-27 06:59:00,,0822.9,4.99,0.00,29.6,28.6,00.0,38.5,31.3,05.8,0003.0,0029.75,0011.71,0005.69
